Wetterdaten: Sonntag, 12.08.2012
Datum Zeit Temperatur Luftfeuchte Regen Wind Richtung Richtung Taupunkt Windchill Windben
12.08.2012 00:00 8,7 C 85 % 0,0 l/m 0,0 km/h (0 Bft) S-SW 202 6,3 C 7,7 C 0,0 km/h (0 Bft)
12.08.2012 00:05 8,9 C 86 % 0,0 l/m 0,0 km/h (0 Bft) N 360 6,7 C 7,7 C 0,0 km/h (0 Bft)
12.08.2012 00:10 9,3 C 86 % 0,0 l/m 0,0 km/h (0 Bft) NO 45 7,1 C 7,9 C 0,0 km/h (0 Bft)
12.08.2012 00:15 8,7 C 86 % 0,0 l/m 0,0 km/h (0 Bft) N-NW 337 6,5 C 7,9 C 0,0 km/h (0 Bft)
12.08.2012 00:20 8,7 C 86 % 0,0 l/m 0,0 km/h (0 Bft) NO 45 6,5 C 7,7 C 0,0 km/h (0 Bft)
12.08.2012 00:25 8,5 C 86 % 0,0 l/m 0,0 km/h (0 Bft) N-NO 22 6,3 C 7,5 C 0,0 km/h (0 Bft)
12.08.2012 00:30 8,5 C 87 % 0,0 l/m 0,0 km/h (0 Bft) NO 45 6,5 C 7,5 C 0,0 km/h (0 Bft)
12.08.2012 00:35 8,8 C 87 % 0,0 l/m 0,0 km/h (0 Bft) N-NO 22 6,8 C 7,6 C 0,0 km/h (0 Bft)
12.08.2012 00:40 8,8 C 88 % 0,0 l/m 0,0 km/h (0 Bft) N 360 6,9 C 7,6 C 0,0 km/h (0 Bft)
12.08.2012 00:45 8,7 C 88 % 0,0 l/m 0,0 km/h (0 Bft) N 360 6,8 C 7,6 C 0,0 km/h (0 Bft)
12.08.2012 00:50 8,9 C 88 % 0,0 l/m 0,0 km/h (0 Bft) N 360 7,0 C 7,6 C 0,0 km/h (0 Bft)
12.08.2012 00:55 8,7 C 88 % 0,0 l/m 0,0 km/h (0 Bft) N-NO 22 6,8 C 7,4 C 0,0 km/h (0 Bft)
12.08.2012 01:00 8,8 C 89 % 0,0 l/m 0,0 km/h (0 Bft) N-NO 22 7,1 C 7,5 C 0,0 km/h (0 Bft)
12.08.2012 01:05 8,7 C 89 % 0,0 l/m 0,0 km/h (0 Bft) N 360 7,0 C 7,4 C 0,0 km/h (0 Bft)
12.08.2012 01:10 8,7 C 89 % 0,0 l/m 0,0 km/h (0 Bft) O-SO 112 7,0 C 7,4 C 0,0 km/h (0 Bft)
12.08.2012 01:15 8,2 C 89 % 0,0 l/m 0,0 km/h (0 Bft) W-NW 292 6,5 C 7,4 C 0,0 km/h (0 Bft)
12.08.2012 01:20 7,9 C 89 % 0,0 l/m 0,0 km/h (0 Bft) N-NO 22 6,2 C 7,2 C 0,0 km/h (0 Bft)
12.08.2012 01:25 8,1 C 89 % 0,0 l/m 0,0 km/h (0 Bft) O-NO 67 6,4 C 7,1 C 0,0 km/h (0 Bft)
12.08.2012 01:30 8,1 C 89 % 0,0 l/m 0,0 km/h (0 Bft) N-NO 22 6,4 C 7,0 C 0,0 km/h (0 Bft)
12.08.2012 01:35 8,4 C 90 % 0,0 l/m 0,0 km/h (0 Bft) NO 45 6,9 C 7,0 C 0,0 km/h (0 Bft)
12.08.2012 01:40 8,3 C 90 % 0,0 l/m 0,0 km/h (0 Bft) N 360 6,8 C 7,1 C 0,0 km/h (0 Bft)
12.08.2012 01:45 8,1 C 90 % 0,0 l/m 0,0 km/h (0 Bft) N 360 6,6 C 7,0 C 0,0 km/h (0 Bft)
12.08.2012 01:50 7,9 C 90 % 0,0 l/m 0,0 km/h (0 Bft) W 270 6,4 C 7,1 C 0,0 km/h (0 Bft)
12.08.2012 01:55 7,4 C 89 % 0,0 l/m 0,0 km/h (0 Bft) N-NW 337 5,7 C 6,7 C 0,0 km/h (0 Bft)
12.08.2012 02:00 7,6 C 89 % 0,0 l/m 0,0 km/h (0 Bft) NO 45 5,9 C 6,7 C 0,0 km/h (0 Bft)
12.08.2012 02:05 7,3 C 89 % 0,0 l/m 0,0 km/h (0 Bft) O-SO 112 5,6 C 6,6 C 0,0 km/h (0 Bft)
12.08.2012 02:10 7,3 C 89 % 0,0 l/m 0,0 km/h (0 Bft) W-SW 247 5,6 C 6,5 C 0,0 km/h (0 Bft)
12.08.2012 02:15 7,1 C 89 % 0,0 l/m 0,0 km/h (0 Bft) S-SW 202 5,4 C 6,4 C 0,0 km/h (0 Bft)
12.08.2012 02:20 7,0 C 89 % 0,0 l/m 0,0 km/h (0 Bft) S-SW 202 5,3 C 6,3 C 0,0 km/h (0 Bft)
12.08.2012 02:25 7,1 C 89 % 0,0 l/m 0,0 km/h (0 Bft) S 180 5,4 C 6,2 C 0,0 km/h (0 Bft)
12.08.2012 02:30 6,9 C 90 % 0,0 l/m 0,0 km/h (0 Bft) S 180 5,4 C 6,2 C 0,0 km/h (0 Bft)
12.08.2012 02:35 6,8 C 90 % 0,0 l/m 0,0 km/h (0 Bft) W 270 5,3 C 6,1 C 0,0 km/h (0 Bft)
12.08.2012 02:40 6,9 C 90 % 0,0 l/m 0,0 km/h (0 Bft) W 270 5,4 C 6,0 C 0,0 km/h (0 Bft)
12.08.2012 02:45 6,8 C 90 % 0,0 l/m 0,0 km/h (0 Bft) W-SW 247 5,3 C 6,1 C 0,0 km/h (0 Bft)
12.08.2012 02:50 6,8 C 90 % 0,0 l/m 0,0 km/h (0 Bft) N-NO 22 5,3 C 6,1 C 0,0 km/h (0 Bft)
12.08.2012 02:55 6,8 C 90 % 0,0 l/m 0,0 km/h (0 Bft) W 270 5,3 C 6,1 C 0,0 km/h (0 Bft)
12.08.2012 03:00 6,7 C 90 % 0,0 l/m 0,0 km/h (0 Bft) W 270 5,2 C 5,9 C 0,0 km/h (0 Bft)
12.08.2012 03:05 6,7 C 90 % 0,0 l/m 0,0 km/h (0 Bft) W 270 5,2 C 5,8 C 0,0 km/h (0 Bft)
12.08.2012 03:10 6,6 C 90 % 0,0 l/m 0,0 km/h (0 Bft) W 270 5,1 C 5,8 C 0,0 km/h (0 Bft)
12.08.2012 03:15 6,5 C 90 % 0,0 l/m 0,0 km/h (0 Bft) SO 135 5,0 C 5,8 C 0,0 km/h (0 Bft)
12.08.2012 03:20 6,5 C 90 % 0,0 l/m 0,0 km/h (0 Bft) SO 135 5,0 C 5,7 C 0,0 km/h (0 Bft)
12.08.2012 03:25 6,4 C 90 % 0,0 l/m 0,0 km/h (0 Bft) SO 135 4,9 C 5,6 C 0,0 km/h (0 Bft)
12.08.2012 03:30 6,2 C 90 % 0,0 l/m 0,0 km/h (0 Bft) SO 135 4,7 C 5,6 C 0,0 km/h (0 Bft)
12.08.2012 03:35 6,8 C 90 % 0,0 l/m 0,0 km/h (0 Bft) NO 45 5,3 C 5,7 C 0,0 km/h (0 Bft)
12.08.2012 03:40 7,0 C 90 % 0,0 l/m 0,0 km/h (0 Bft) N-NO 22 5,5 C 5,8 C 0,0 km/h (0 Bft)
12.08.2012 03:45 7,3 C 91 % 0,0 l/m 0,0 km/h (0 Bft) N-NO 22 5,9 C 5,9 C 0,0 km/h (0 Bft)
12.08.2012 03:50 6,9 C 91 % 0,0 l/m 0,0 km/h (0 Bft) N-NW 337 5,5 C 5,9 C 0,0 km/h (0 Bft)
12.08.2012 03:55 7,0 C 91 % 0,0 l/m 0,0 km/h (0 Bft) N 360 5,6 C 5,9 C 0,0 km/h (0 Bft)
12.08.2012 04:00 6,7 C 91 % 0,0 l/m 0,0 km/h (0 Bft) N-NO 22 5,3 C 5,8 C 0,0 km/h (0 Bft)
12.08.2012 04:05 6,8 C 91 % 0,0 l/m 0,0 km/h (0 Bft) N-NO 22 5,4 C 5,8 C 0,0 km/h (0 Bft)
12.08.2012 04:10 6,6 C 91 % 0,0 l/m 0,0 km/h (0 Bft) N-NO 22 5,2 C 5,8 C 0,0 km/h (0 Bft)
12.08.2012 04:15 6,4 C 91 % 0,0 l/m 0,0 km/h (0 Bft) W-SW 247 5,0 C 5,8 C 0,0 km/h (0 Bft)
12.08.2012 04:20 6,2 C 91 % 0,0 l/m 0,0 km/h (0 Bft) W-SW 247 4,8 C 5,7 C 0,0 km/h (0 Bft)
12.08.2012 04:25 6,2 C 91 % 0,0 l/m 0,0 km/h (0 Bft) O 90 4,8 C 5,5 C 0,0 km/h (0 Bft)
12.08.2012 04:30 6,3 C 91 % 0,0 l/m 0,0 km/h (0 Bft) S 180 4,9 C 5,5 C 0,0 km/h (0 Bft)
12.08.2012 04:35 6,3 C 91 % 0,0 l/m 0,0 km/h (0 Bft) NW 315 4,9 C 5,6 C 0,0 km/h (0 Bft)
12.08.2012 04:40 6,3 C 91 % 0,0 l/m 0,0 km/h (0 Bft) N-NO 22 4,9 C 5,6 C 0,0 km/h (0 Bft)
12.08.2012 04:45 6,2 C 91 % 0,0 l/m 0,0 km/h (0 Bft) W-NW 292 4,8 C 5,6 C 0,0 km/h (0 Bft)
12.08.2012 04:50 6,1 C 91 % 0,0 l/m 0,0 km/h (0 Bft) N-NW 337 4,7 C 5,5 C 0,0 km/h (0 Bft)
12.08.2012 04:55 6,0 C 91 % 0,0 l/m 0,0 km/h (0 Bft) O-SO 112 4,6 C 5,4 C 0,0 km/h (0 Bft)
12.08.2012 05:00 5,8 C 92 % 0,0 l/m 0,0 km/h (0 Bft) O-SO 112 4,6 C 5,3 C 0,0 km/h (0 Bft)
12.08.2012 05:05 5,7 C 92 % 0,0 l/m 0,0 km/h (0 Bft) W-SW 247 4,5 C 5,1 C 0,0 km/h (0 Bft)
12.08.2012 05:10 5,7 C 92 % 0,0 l/m 0,0 km/h (0 Bft) N 360 4,5 C 5,1 C 0,0 km/h (0 Bft)
12.08.2012 05:15 5,7 C 92 % 0,0 l/m 0,0 km/h (0 Bft) W-SW 247 4,5 C 5,0 C 0,0 km/h (0 Bft)
12.08.2012 05:20 5,5 C 92 % 0,0 l/m 0,0 km/h (0 Bft) W-SW 247 4,3 C 5,0 C 0,0 km/h (0 Bft)
12.08.2012 05:25 5,6 C 92 % 0,0 l/m 0,0 km/h (0 Bft) NW 315 4,4 C 4,8 C 0,0 km/h (0 Bft)
12.08.2012 05:30 5,6 C 92 % 0,0 l/m 0,0 km/h (0 Bft) W-NW 292 4,4 C 4,7 C 0,0 km/h (0 Bft)
12.08.2012 05:35 5,4 C 92 % 0,0 l/m 0,0 km/h (0 Bft) N-NW 337 4,2 C 4,8 C 0,0 km/h (0 Bft)
12.08.2012 05:40 5,5 C 92 % 0,0 l/m 0,0 km/h (0 Bft) NW 315 4,3 C 4,8 C 0,0 km/h (0 Bft)
12.08.2012 05:45 5,4 C 92 % 0,0 l/m 0,0 km/h (0 Bft) NW 315 4,2 C 4,8 C 0,0 km/h (0 Bft)
12.08.2012 05:50 5,4 C 92 % 0,0 l/m 0,0 km/h (0 Bft) N-NW 337 4,2 C 4,8 C 0,0 km/h (0 Bft)
12.08.2012 05:55 5,6 C 92 % 0,0 l/m 0,0 km/h (0 Bft) N-NW 337 4,4 C 4,8 C 0,0 km/h (0 Bft)
12.08.2012 06:00 5,6 C 92 % 0,0 l/m 0,0 km/h (0 Bft) N 360 4,4 C 4,9 C 0,0 km/h (0 Bft)
12.08.2012 06:05 6,0 C 91 % 0,0 l/m 0,0 km/h (0 Bft) N-NW 337 4,6 C 5,1 C 0,0 km/h (0 Bft)
12.08.2012 06:10 5,8 C 92 % 0,0 l/m 0,0 km/h (0 Bft) S 180 4,6 C 5,2 C 0,0 km/h (0 Bft)
12.08.2012 06:15 5,4 C 92 % 0,0 l/m 0,0 km/h (0 Bft) O-NO 67 4,2 C 5,0 C 0,0 km/h (0 Bft)
12.08.2012 06:20 5,4 C 92 % 0,0 l/m 0,0 km/h (0 Bft) O-NO 67 4,2 C 4,8 C 0,0 km/h (0 Bft)
12.08.2012 06:25 5,4 C 92 % 0,0 l/m 0,0 km/h (0 Bft) W-SW 247 4,2 C 4,7 C 0,0 km/h (0 Bft)
12.08.2012 06:30 5,3 C 92 % 0,0 l/m 0,0 km/h (0 Bft) W-SW 247 4,1 C 4,7 C 0,0 km/h (0 Bft)
12.08.2012 06:35 5,3 C 92 % 0,0 l/m 0,0 km/h (0 Bft) S 180 4,1 C 4,7 C 0,0 km/h (0 Bft)
12.08.2012 06:40 5,4 C 92 % 0,0 l/m 0,0 km/h (0 Bft) S-SW 202 4,2 C 5,4 C 0,0 km/h (0 Bft)
12.08.2012 06:45 5,6 C 92 % 0,0 l/m 0,0 km/h (0 Bft) NW 315 4,4 C 6,2 C 0,0 km/h (0 Bft)
12.08.2012 06:50 5,7 C 92 % 0,0 l/m 0,0 km/h (0 Bft) NW 315 4,5 C 6,9 C 0,0 km/h (0 Bft)
12.08.2012 06:55 5,8 C 93 % 0,0 l/m 0,0 km/h (0 Bft) W-SW 247 4,8 C 8,1 C 0,0 km/h (0 Bft)
12.08.2012 07:00 5,9 C 93 % 0,0 l/m 0,0 km/h (0 Bft) NW 315 4,9 C 8,6 C 0,0 km/h (0 Bft)
12.08.2012 07:05 6,3 C 91 % 0,0 l/m 0,0 km/h (0 Bft) W-SW 247 4,9 C 9,6 C 0,0 km/h (0 Bft)
12.08.2012 07:10 6,4 C 91 % 0,0 l/m 0,0 km/h (0 Bft) W-NW 292 5,0 C 10,2 C 0,0 km/h (0 Bft)
12.08.2012 07:15 6,7 C 91 % 0,0 l/m 0,0 km/h (0 Bft) W-NW 292 5,3 C 9,9 C 0,0 km/h (0 Bft)
12.08.2012 07:20 7,3 C 91 % 0,0 l/m 0,0 km/h (0 Bft) W-SW 247 5,9 C 9,6 C 0,0 km/h (0 Bft)
12.08.2012 07:25 7,5 C 91 % 0,0 l/m 0,0 km/h (0 Bft) S-SW 202 6,1 C 10,0 C 0,0 km/h (0 Bft)
12.08.2012 07:30 7,5 C 91 % 0,0 l/m 0,0 km/h (0 Bft) W-SW 247 6,1 C 10,8 C 0,0 km/h (0 Bft)
12.08.2012 07:35 9,5 C 91 % 0,0 l/m 0,0 km/h (0 Bft) N-NW 337 8,1 C 12,5 C 0,0 km/h (0 Bft)
12.08.2012 07:40 10,7 C 90 % 0,0 l/m 0,0 km/h (0 Bft) N 360 9,1 C 13,7 C 0,0 km/h (0 Bft)
12.08.2012 07:45 11,9 C 87 % 0,0 l/m 0,0 km/h (0 Bft) NW 315 9,8 C 14,8 C 0,0 km/h (0 Bft)
12.08.2012 07:50 12,4 C 84 % 0,0 l/m 0,0 km/h (0 Bft) O-SO 112 9,8 C 15,2 C 0,0 km/h (0 Bft)
12.08.2012 07:55 14,1 C 80 % 0,0 l/m 0,0 km/h (0 Bft) W-NW 292 10,7 C 16,3 C 0,0 km/h (0 Bft)
12.08.2012 08:00 14,5 C 79 % 0,0 l/m 0,0 km/h (0 Bft) N 360 10,9 C 16,8 C 0,0 km/h (0 Bft)
12.08.2012 08:05 15,1 C 74 % 0,0 l/m 0,0 km/h (0 Bft) W-NW 292 10,5 C 17,2 C 0,0 km/h (0 Bft)
12.08.2012 08:10 15,7 C 73 % 0,0 l/m 0,0 km/h (0 Bft) NW 315 10,9 C 17,4 C 0,0 km/h (0 Bft)
12.08.2012 08:15 16,1 C 67 % 0,0 l/m 0,2 km/h (0 Bft) N 360 10,0 C 17,2 C 1,9 km/h (1 Bft)
12.08.2012 08:20 17,6 C 69 % 0,0 l/m 0,2 km/h (0 Bft) W 270 11,8 C 17,6 C 0,0 km/h (0 Bft)
12.08.2012 08:25 17,6 C 64 % 0,0 l/m 0,8 km/h (0 Bft) W-NW 292 10,7 C 17,8 C 3,7 km/h (1 Bft)
12.08.2012 08:30 17,2 C 62 % 0,0 l/m 1,4 km/h (1 Bft) W-NW 292 9,9 C 17,6 C 0,0 km/h (0 Bft)
12.08.2012 08:35 17,3 C 63 % 0,0 l/m 1,4 km/h (1 Bft) N-NW 337 10,2 C 18,4 C 4,2 km/h (1 Bft)
12.08.2012 08:40 17,5 C 62 % 0,0 l/m 1,4 km/h (1 Bft) N-NW 337 10,2 C 18,3 C 1,9 km/h (1 Bft)
12.08.2012 08:45 16,9 C 59 % 0,0 l/m 2,1 km/h (1 Bft) W-SW 247 10,0 C 18,5 C 4,0 km/h (1 Bft)
12.08.2012 08:50 16,7 C 59 % 0,0 l/m 2,4 km/h (1 Bft) W-SW 247 10,7 C 18,6 C 3,7 km/h (1 Bft)
12.08.2012 08:55 16,7 C 59 % 0,0 l/m 2,7 km/h (1 Bft) S-SO 157 10,9 C 18,7 C 4,5 km/h (1 Bft)
12.08.2012 09:00 16,7 C 58 % 0,0 l/m 1,9 km/h (1 Bft) W-NW 292 10,6 C 19,4 C 0,0 km/h (0 Bft)
12.08.2012 09:05 16,6 C 55 % 0,0 l/m 0,8 km/h (0 Bft) NW 315 9,7 C 20,3 C 5,3 km/h (1 Bft)
12.08.2012 09:10 16,3 C 58 % 0,0 l/m 1,6 km/h (1 Bft) W-NW 292 9,8 C 20,1 C 2,7 km/h (1 Bft)
12.08.2012 09:15 16,5 C 58 % 0,0 l/m 2,3 km/h (1 Bft) W 270 10,5 C 20,1 C 5,8 km/h (2 Bft)
12.08.2012 09:20 16,4 C 58 % 0,0 l/m 2,1 km/h (1 Bft) N 360 10,7 C 19,8 C 3,2 km/h (1 Bft)
12.08.2012 09:25 16,8 C 58 % 0,0 l/m 2,1 km/h (1 Bft) SO 135 10,5 C 20,4 C 1,9 km/h (1 Bft)
12.08.2012 09:30 17,1 C 57 % 0,0 l/m 2,1 km/h (1 Bft) W 270 10,9 C 20,7 C 3,5 km/h (1 Bft)
12.08.2012 09:35 17,1 C 57 % 0,0 l/m 2,7 km/h (1 Bft) N 360 11,0 C 20,6 C 2,7 km/h (1 Bft)
12.08.2012 09:40 17,2 C 56 % 0,0 l/m 2,9 km/h (1 Bft) W-SW 247 10,8 C 20,7 C 2,9 km/h (1 Bft)
12.08.2012 09:45 17,4 C 57 % 0,0 l/m 2,6 km/h (1 Bft) S-SW 202 11,0 C 20,9 C 3,7 km/h (1 Bft)
12.08.2012 09:50 17,2 C 56 % 0,0 l/m 3,4 km/h (1 Bft) W 270 10,5 C 20,6 C 3,9 km/h (1 Bft)
12.08.2012 09:55 17,3 C 56 % 0,0 l/m 4,2 km/h (1 Bft) W 270 10,7 C 20,3 C 7,4 km/h (2 Bft)
12.08.2012 10:00 17,5 C 58 % 0,0 l/m 3,7 km/h (1 Bft) W-SW 247 11,5 C 20,2 C 3,9 km/h (1 Bft)
12.08.2012 10:05 17,8 C 57 % 0,0 l/m 3,2 km/h (1 Bft) S-SW 202 11,1 C 20,7 C 5,1 km/h (1 Bft)
12.08.2012 10:10 17,9 C 56 % 0,0 l/m 4,2 km/h (1 Bft) S-SW 202 11,0 C 20,6 C 7,9 km/h (2 Bft)
12.08.2012 10:15 18,1 C 56 % 0,0 l/m 4,8 km/h (1 Bft) SW 225 11,3 C 20,5 C 9,2 km/h (2 Bft)
12.08.2012 10:20 18,3 C 56 % 0,0 l/m 4,0 km/h (1 Bft) NW 315 11,0 C 20,6 C 0,0 km/h (0 Bft)
12.08.2012 10:25 18,5 C 55 % 0,0 l/m 4,2 km/h (1 Bft) S-SO 157 11,0 C 21,0 C 6,4 km/h (2 Bft)
12.08.2012 10:30 18,4 C 55 % 0,0 l/m 4,0 km/h (1 Bft) S 180 10,9 C 20,9 C 3,4 km/h (1 Bft)
12.08.2012 10:35 18,5 C 54 % 0,0 l/m 4,2 km/h (1 Bft) N-NW 337 10,3 C 21,0 C 3,4 km/h (1 Bft)
12.08.2012 10:40 18,9 C 54 % 0,0 l/m 4,3 km/h (1 Bft) W-SW 247 10,9 C 21,1 C 6,6 km/h (2 Bft)
12.08.2012 10:45 19,1 C 54 % 0,0 l/m 4,3 km/h (1 Bft) SW 225 11,0 C 21,2 C 2,7 km/h (1 Bft)
12.08.2012 10:50 19,2 C 54 % 0,0 l/m 4,7 km/h (1 Bft) W-NW 292 11,0 C 21,4 C 6,8 km/h (2 Bft)
12.08.2012 10:55 19,2 C 55 % 0,0 l/m 4,5 km/h (1 Bft) N 360 11,0 C 21,2 C 9,3 km/h (2 Bft)
12.08.2012 11:00 19,5 C 55 % 0,0 l/m 5,0 km/h (1 Bft) W-SW 247 10,8 C 21,2 C 6,4 km/h (2 Bft)
12.08.2012 11:05 19,6 C 54 % 0,0 l/m 5,0 km/h (1 Bft) W 270 10,1 C 21,4 C 7,7 km/h (2 Bft)
12.08.2012 11:10 20,0 C 55 % 0,0 l/m 4,5 km/h (1 Bft) NW 315 11,1 C 21,4 C 4,0 km/h (1 Bft)
12.08.2012 11:15 19,9 C 56 % 0,0 l/m 4,0 km/h (1 Bft) W-SW 247 10,9 C 22,0 C 5,1 km/h (1 Bft)
12.08.2012 11:20 20,6 C 55 % 0,0 l/m 3,2 km/h (1 Bft) O-NO 67 11,2 C 22,2 C 1,9 km/h (1 Bft)
12.08.2012 11:25 19,9 C 56 % 0,0 l/m 3,1 km/h (1 Bft) W-SW 247 10,9 C 22,8 C 3,1 km/h (1 Bft)
12.08.2012 11:30 20,6 C 54 % 0,0 l/m 3,5 km/h (1 Bft) S-SO 157 11,0 C 22,6 C 4,2 km/h (1 Bft)
12.08.2012 11:35 20,7 C 55 % 0,0 l/m 4,0 km/h (1 Bft) W-NW 292 11,3 C 22,5 C 6,4 km/h (2 Bft)
12.08.2012 11:40 20,9 C 54 % 0,0 l/m 3,7 km/h (1 Bft) W-NW 292 11,2 C 22,6 C 5,3 km/h (1 Bft)
12.08.2012 11:45 20,4 C 54 % 0,0 l/m 4,2 km/h (1 Bft) S-SW 202 10,8 C 22,7 C 5,8 km/h (2 Bft)
12.08.2012 11:50 20,9 C 55 % 0,0 l/m 4,7 km/h (1 Bft) W-NW 292 11,5 C 22,7 C 5,8 km/h (2 Bft)
12.08.2012 11:55 20,7 C 55 % 0,0 l/m 5,1 km/h (1 Bft) S 180 11,3 C 22,5 C 12,2 km/h (2 Bft)
12.08.2012 12:00 20,7 C 56 % 0,0 l/m 5,1 km/h (1 Bft) W-SW 247 11,6 C 22,3 C 3,9 km/h (1 Bft)
12.08.2012 12:05 21,1 C 55 % 0,0 l/m 4,3 km/h (1 Bft) S 180 11,7 C 22,6 C 3,4 km/h (1 Bft)
12.08.2012 12:10 21,3 C 54 % 0,0 l/m 3,7 km/h (1 Bft) NW 315 11,6 C 22,9 C 3,5 km/h (1 Bft)
12.08.2012 12:15 21,5 C 54 % 0,0 l/m 3,7 km/h (1 Bft) N-NW 337 11,8 C 23,2 C 2,6 km/h (1 Bft)
12.08.2012 12:20 21,5 C 55 % 0,0 l/m 3,2 km/h (1 Bft) W-NW 292 12,1 C 23,6 C 5,0 km/h (1 Bft)
12.08.2012 12:25 21,5 C 55 % 0,0 l/m 3,2 km/h (1 Bft) N-NW 337 12,1 C 23,5 C 1,6 km/h (1 Bft)
12.08.2012 12:30 21,4 C 55 % 0,0 l/m 3,1 km/h (1 Bft) N-NW 337 12,0 C 23,8 C 3,9 km/h (1 Bft)
12.08.2012 12:35 22,0 C 53 % 0,0 l/m 3,2 km/h (1 Bft) W-SW 247 12,0 C 24,0 C 3,2 km/h (1 Bft)
12.08.2012 12:40 22,0 C 54 % 0,0 l/m 3,7 km/h (1 Bft) O-SO 112 12,3 C 24,0 C 2,1 km/h (1 Bft)
12.08.2012 12:45 21,5 C 53 % 0,0 l/m 4,3 km/h (1 Bft) W-SW 247 11,5 C 23,8 C 4,7 km/h (1 Bft)
12.08.2012 12:50 21,9 C 52 % 0,0 l/m 3,9 km/h (1 Bft) W-SW 247 11,6 C 23,7 C 3,5 km/h (1 Bft)
12.08.2012 12:55 21,9 C 52 % 0,0 l/m 4,0 km/h (1 Bft) W-SW 247 11,6 C 24,0 C 6,9 km/h (2 Bft)
12.08.2012 13:00 21,6 C 52 % 0,0 l/m 4,5 km/h (1 Bft) S-SO 157 11,3 C 23,8 C 8,0 km/h (2 Bft)
12.08.2012 13:05 22,2 C 53 % 0,0 l/m 4,2 km/h (1 Bft) NW 315 12,2 C 23,8 C 2,9 km/h (1 Bft)
12.08.2012 13:10 22,6 C 53 % 0,0 l/m 4,3 km/h (1 Bft) SW 225 12,5 C 23,9 C 9,3 km/h (2 Bft)
12.08.2012 13:15 22,1 C 53 % 0,0 l/m 4,8 km/h (1 Bft) W-NW 292 12,1 C 23,7 C 5,0 km/h (1 Bft)
12.08.2012 13:20 21,7 C 54 % 0,0 l/m 4,8 km/h (1 Bft) W 270 12,0 C 23,9 C 6,3 km/h (2 Bft)
12.08.2012 13:25 22,5 C 53 % 0,0 l/m 4,5 km/h (1 Bft) S-SW 202 12,4 C 24,1 C 7,4 km/h (2 Bft)
12.08.2012 13:30 22,6 C 54 % 0,0 l/m 4,5 km/h (1 Bft) S 180 12,8 C 23,9 C 3,1 km/h (1 Bft)
12.08.2012 13:35 22,2 C 54 % 0,0 l/m 4,7 km/h (1 Bft) W-NW 292 12,4 C 23,2 C 4,5 km/h (1 Bft)
12.08.2012 13:40 22,3 C 53 % 0,0 l/m 5,0 km/h (1 Bft) W-NW 292 12,2 C 22,9 C 4,5 km/h (1 Bft)
12.08.2012 13:45 22,2 C 55 % 0,0 l/m 5,0 km/h (1 Bft) S-SW 202 12,7 C 22,6 C 3,1 km/h (1 Bft)
12.08.2012 13:50 21,9 C 54 % 0,0 l/m 4,3 km/h (1 Bft) S-SW 202 12,2 C 22,6 C 3,2 km/h (1 Bft)
12.08.2012 13:55 22,2 C 52 % 0,0 l/m 4,2 km/h (1 Bft) W-SW 247 11,9 C 23,1 C 6,1 km/h (2 Bft)
12.08.2012 14:00 22,4 C 53 % 0,0 l/m 4,5 km/h (1 Bft) W-SW 247 12,3 C 23,2 C 6,8 km/h (2 Bft)
12.08.2012 14:05 22,4 C 53 % 0,0 l/m 4,3 km/h (1 Bft) NO 45 12,3 C 23,4 C 8,7 km/h (2 Bft)
12.08.2012 14:10 22,5 C 52 % 0,0 l/m 3,9 km/h (1 Bft) W-NW 292 12,1 C 23,6 C 0,0 km/h (0 Bft)
12.08.2012 14:15 21,9 C 53 % 0,0 l/m 4,3 km/h (1 Bft) N 360 11,9 C 23,6 C 8,9 km/h (2 Bft)
12.08.2012 14:20 22,4 C 54 % 0,0 l/m 4,5 km/h (1 Bft) S 180 12,6 C 23,3 C 5,0 km/h (1 Bft)
12.08.2012 14:25 22,1 C 52 % 0,0 l/m 5,1 km/h (1 Bft) S-SO 157 11,8 C 23,2 C 6,8 km/h (2 Bft)
12.08.2012 14:30 22,0 C 52 % 0,0 l/m 5,3 km/h (1 Bft) W-NW 292 11,7 C 23,0 C 5,6 km/h (1 Bft)
12.08.2012 14:35 22,3 C 52 % 0,0 l/m 4,8 km/h (1 Bft) W-NW 292 12,0 C 23,3 C 7,2 km/h (2 Bft)
12.08.2012 14:40 22,0 C 49 % 0,0 l/m 3,5 km/h (1 Bft) S 180 10,8 C 23,7 C 0,0 km/h (0 Bft)
12.08.2012 14:45 22,2 C 52 % 0,0 l/m 2,7 km/h (1 Bft) W-NW 292 11,9 C 24,5 C 5,8 km/h (2 Bft)
12.08.2012 14:50 21,9 C 52 % 0,0 l/m 3,5 km/h (1 Bft) W-NW 292 11,6 C 24,3 C 4,5 km/h (1 Bft)
12.08.2012 14:55 22,3 C 53 % 0,0 l/m 4,0 km/h (1 Bft) S-SW 202 12,2 C 24,2 C 3,7 km/h (1 Bft)
12.08.2012 15:00 22,1 C 52 % 0,0 l/m 4,3 km/h (1 Bft) S-SW 202 11,8 C 24,2 C 3,1 km/h (1 Bft)
12.08.2012 15:05 21,8 C 54 % 0,0 l/m 4,0 km/h (1 Bft) W-NW 292 12,1 C 24,2 C 4,8 km/h (1 Bft)
12.08.2012 15:10 21,1 C 55 % 0,0 l/m 2,9 km/h (1 Bft) N-NW 337 11,7 C 23,6 C 3,1 km/h (1 Bft)
12.08.2012 15:15 21,7 C 56 % 0,0 l/m 3,2 km/h (1 Bft) S-SO 157 12,5 C 23,4 C 2,6 km/h (1 Bft)
12.08.2012 15:20 21,9 C 55 % 0,0 l/m 3,1 km/h (1 Bft) S-SO 157 12,4 C 23,6 C 3,5 km/h (1 Bft)
12.08.2012 15:25 21,6 C 54 % 0,0 l/m 2,6 km/h (1 Bft) N-NW 337 11,9 C 23,2 C 0,0 km/h (0 Bft)
12.08.2012 15:30 21,6 C 55 % 0,0 l/m 1,8 km/h (1 Bft) N-NW 337 12,2 C 23,6 C 3,2 km/h (1 Bft)
12.08.2012 15:35 21,6 C 55 % 0,0 l/m 1,6 km/h (1 Bft) N-NW 337 12,2 C 24,0 C 3,4 km/h (1 Bft)
12.08.2012 15:40 21,7 C 56 % 0,0 l/m 3,1 km/h (1 Bft) W 270 12,5 C 23,9 C 3,4 km/h (1 Bft)
12.08.2012 15:45 22,0 C 55 % 0,0 l/m 4,0 km/h (1 Bft) W 270 12,5 C 23,8 C 3,9 km/h (1 Bft)
12.08.2012 15:50 22,3 C 56 % 0,0 l/m 3,4 km/h (1 Bft) S 180 13,1 C 24,2 C 3,2 km/h (1 Bft)
12.08.2012 15:55 21,5 C 54 % 0,0 l/m 2,7 km/h (1 Bft) N-NO 22 11,8 C 24,2 C 7,1 km/h (2 Bft)
12.08.2012 16:00 21,6 C 55 % 0,0 l/m 3,7 km/h (1 Bft) W-NW 292 12,2 C 24,0 C 4,7 km/h (1 Bft)
12.08.2012 16:05 21,0 C 57 % 0,0 l/m 4,5 km/h (1 Bft) W-NW 292 12,1 C 23,2 C 4,7 km/h (1 Bft)
12.08.2012 16:10 20,8 C 57 % 0,0 l/m 4,0 km/h (1 Bft) S 180 12,0 C 22,6 C 8,0 km/h (2 Bft)
12.08.2012 16:15 20,7 C 58 % 0,0 l/m 3,9 km/h (1 Bft) W-SW 247 12,1 C 21,9 C 5,8 km/h (2 Bft)
12.08.2012 16:20 21,3 C 55 % 0,0 l/m 4,3 km/h (1 Bft) W 270 11,9 C 22,1 C 7,9 km/h (2 Bft)
12.08.2012 16:25 21,5 C 55 % 0,0 l/m 4,5 km/h (1 Bft) W 270 12,1 C 22,9 C 3,7 km/h (1 Bft)
12.08.2012 16:30 22,1 C 55 % 0,0 l/m 4,5 km/h (1 Bft) SW 225 12,6 C 23,5 C 3,2 km/h (1 Bft)
12.08.2012 16:35 21,8 C 53 % 0,0 l/m 4,0 km/h (1 Bft) W-NW 292 11,8 C 24,3 C 5,3 km/h (1 Bft)
12.08.2012 16:40 21,3 C 56 % 0,0 l/m 4,5 km/h (1 Bft) W-SW 247 12,2 C 24,3 C 2,6 km/h (1 Bft)
12.08.2012 16:45 21,2 C 57 % 0,0 l/m 4,3 km/h (1 Bft) N-NW 337 12,3 C 24,9 C 7,7 km/h (2 Bft)
12.08.2012 16:50 20,8 C 56 % 0,0 l/m 3,5 km/h (1 Bft) N-NW 337 11,7 C 25,3 C 5,5 km/h (1 Bft)
12.08.2012 16:55 20,9 C 58 % 0,0 l/m 3,5 km/h (1 Bft) NW 315 12,3 C 25,3 C 2,9 km/h (1 Bft)
12.08.2012 17:00 20,8 C 58 % 0,0 l/m 4,0 km/h (1 Bft) W-SW 247 12,2 C 25,3 C 11,1 km/h (2 Bft)
12.08.2012 17:05 20,5 C 56 % 0,0 l/m 5,0 km/h (1 Bft) W 270 11,4 C 24,9 C 8,4 km/h (2 Bft)
12.08.2012 17:10 20,4 C 58 % 0,0 l/m 5,6 km/h (1 Bft) N 360 11,9 C 24,6 C 3,4 km/h (1 Bft)
12.08.2012 17:15 20,3 C 58 % 0,0 l/m 4,3 km/h (1 Bft) W-NW 292 11,8 C 24,7 C 2,3 km/h (1 Bft)
12.08.2012 17:20 20,3 C 57 % 0,0 l/m 3,4 km/h (1 Bft) S-SO 157 11,5 C 24,9 C 3,5 km/h (1 Bft)
12.08.2012 17:25 20,2 C 58 % 0,0 l/m 3,4 km/h (1 Bft) SW 225 11,7 C 24,8 C 4,8 km/h (1 Bft)
12.08.2012 17:30 20,2 C 57 % 0,0 l/m 4,3 km/h (1 Bft) W-SW 247 11,4 C 24,5 C 7,6 km/h (2 Bft)
12.08.2012 17:35 20,1 C 59 % 0,0 l/m 4,8 km/h (1 Bft) S 180 11,8 C 24,1 C 4,7 km/h (1 Bft)
12.08.2012 17:40 20,2 C 58 % 0,0 l/m 4,0 km/h (1 Bft) N 360 11,7 C 24,3 C 4,5 km/h (1 Bft)
12.08.2012 17:45 20,0 C 58 % 0,0 l/m 3,9 km/h (1 Bft) NW 315 11,5 C 24,1 C 4,3 km/h (1 Bft)
12.08.2012 17:50 20,0 C 58 % 0,0 l/m 3,7 km/h (1 Bft) W 270 11,5 C 24,4 C 3,1 km/h (1 Bft)
12.08.2012 17:55 20,1 C 58 % 0,0 l/m 4,0 km/h (1 Bft) S-SO 157 11,6 C 24,4 C 2,9 km/h (1 Bft)
12.08.2012 18:00 20,1 C 59 % 0,0 l/m 4,2 km/h (1 Bft) W 270 11,8 C 24,6 C 7,1 km/h (2 Bft)
12.08.2012 18:05 19,8 C 58 % 0,0 l/m 4,3 km/h (1 Bft) W 270 11,3 C 24,5 C 6,6 km/h (2 Bft)
12.08.2012 18:10 19,7 C 58 % 0,0 l/m 4,5 km/h (1 Bft) W 270 11,2 C 24,3 C 7,2 km/h (2 Bft)
12.08.2012 18:15 19,7 C 59 % 0,0 l/m 4,3 km/h (1 Bft) W 270 11,5 C 23,9 C 4,2 km/h (1 Bft)
12.08.2012 18:20 19,7 C 58 % 0,0 l/m 4,0 km/h (1 Bft) W-NW 292 11,2 C 24,1 C 0,0 km/h (0 Bft)
12.08.2012 18:25 19,7 C 59 % 0,0 l/m 3,9 km/h (1 Bft) W 270 11,5 C 24,2 C 7,1 km/h (2 Bft)
12.08.2012 18:30 19,6 C 59 % 0,0 l/m 4,0 km/h (1 Bft) W 270 11,4 C 24,0 C 5,8 km/h (2 Bft)
12.08.2012 18:35 19,6 C 59 % 0,0 l/m 4,2 km/h (1 Bft) W-SW 247 11,4 C 23,9 C 6,6 km/h (2 Bft)
12.08.2012 18:40 19,6 C 58 % 0,0 l/m 4,5 km/h (1 Bft) SW 225 11,1 C 23,8 C 5,6 km/h (1 Bft)
12.08.2012 18:45 19,6 C 58 % 0,0 l/m 4,2 km/h (1 Bft) W-NW 292 11,1 C 24,1 C 6,8 km/h (2 Bft)
12.08.2012 18:50 19,5 C 59 % 0,0 l/m 3,5 km/h (1 Bft) W 270 11,3 C 24,0 C 3,4 km/h (1 Bft)
12.08.2012 18:55 19,4 C 59 % 0,0 l/m 2,9 km/h (1 Bft) W 270 11,2 C 24,2 C 5,0 km/h (1 Bft)
12.08.2012 19:00 19,4 C 58 % 0,0 l/m 3,1 km/h (1 Bft) N 360 10,9 C 24,1 C 4,2 km/h (1 Bft)
12.08.2012 19:05 19,4 C 58 % 0,0 l/m 4,5 km/h (1 Bft) W-SW 247 10,9 C 23,6 C 6,0 km/h (2 Bft)
12.08.2012 19:10 19,4 C 58 % 0,0 l/m 4,2 km/h (1 Bft) S-SW 202 10,9 C 23,4 C 3,2 km/h (1 Bft)
12.08.2012 19:15 19,2 C 58 % 0,0 l/m 3,7 km/h (1 Bft) S-SW 202 10,7 C 23,2 C 4,8 km/h (1 Bft)
12.08.2012 19:20 19,0 C 58 % 0,0 l/m 3,2 km/h (1 Bft) W-NW 292 10,5 C 22,9 C 4,8 km/h (1 Bft)
12.08.2012 19:25 18,8 C 59 % 0,0 l/m 2,6 km/h (1 Bft) W 270 10,6 C 22,9 C 4,2 km/h (1 Bft)
12.08.2012 19:30 18,7 C 60 % 0,0 l/m 1,9 km/h (1 Bft) W-NW 292 10,8 C 22,8 C 4,5 km/h (1 Bft)
12.08.2012 19:35 18,3 C 61 % 0,0 l/m 2,1 km/h (1 Bft) W-NW 292 10,6 C 22,3 C 2,3 km/h (1 Bft)
12.08.2012 19:40 18,2 C 61 % 0,0 l/m 1,8 km/h (1 Bft) SW 225 10,6 C 21,6 C 0,0 km/h (0 Bft)
12.08.2012 19:45 17,7 C 62 % 0,0 l/m 0,5 km/h (0 Bft) NO 45 10,3 C 20,9 C 0,0 km/h (0 Bft)
12.08.2012 19:50 17,6 C 63 % 0,0 l/m 0,2 km/h (0 Bft) N 360 10,5 C 20,7 C 0,0 km/h (0 Bft)
12.08.2012 19:55 17,3 C 63 % 0,0 l/m 0,0 km/h (0 Bft) NO 45 10,2 C 20,5 C 0,0 km/h (0 Bft)
12.08.2012 20:00 17,2 C 63 % 0,0 l/m 0,0 km/h (0 Bft) N 360 10,1 C 20,2 C 0,0 km/h (0 Bft)
12.08.2012 20:05 16,9 C 65 % 0,0 l/m 0,0 km/h (0 Bft) N 360 10,3 C 19,7 C 0,0 km/h (0 Bft)
12.08.2012 20:10 16,7 C 66 % 0,0 l/m 0,2 km/h (0 Bft) N-NO 22 10,3 C 19,1 C 1,8 km/h (1 Bft)
12.08.2012 20:15 16,5 C 67 % 0,0 l/m 0,0 km/h (0 Bft) N-NO 22 10,4 C 18,3 C 0,0 km/h (0 Bft)
12.08.2012 20:20 16,3 C 67 % 0,0 l/m 0,2 km/h (0 Bft) W-NW 292 10,2 C 17,6 C 0,0 km/h (0 Bft)
12.08.2012 20:25 16,0 C 68 % 0,0 l/m 0,0 km/h (0 Bft) NO 45 10,1 C 16,8 C 0,0 km/h (0 Bft)
12.08.2012 20:30 15,9 C 69 % 0,0 l/m 0,2 km/h (0 Bft) N 360 10,2 C 16,2 C 1,9 km/h (1 Bft)
12.08.2012 20:35 15,7 C 69 % 0,0 l/m 0,3 km/h (0 Bft) NO 45 10,0 C 15,7 C 0,0 km/h (0 Bft)
12.08.2012 20:40 15,5 C 69 % 0,0 l/m 0,3 km/h (0 Bft) N-NO 22 9,8 C 15,4 C 0,0 km/h (0 Bft)
12.08.2012 20:45 15,5 C 69 % 0,0 l/m 0,0 km/h (0 Bft) NO 45 9,8 C 15,0 C 0,0 km/h (0 Bft)
12.08.2012 20:50 15,2 C 70 % 0,0 l/m 0,0 km/h (0 Bft) N 360 9,8 C 14,9 C 0,0 km/h (0 Bft)
12.08.2012 20:55 14,7 C 72 % 0,0 l/m 0,0 km/h (0 Bft) O-NO 67 9,7 C 14,6 C 0,0 km/h (0 Bft)
12.08.2012 21:00 14,5 C 72 % 0,0 l/m 0,0 km/h (0 Bft) NO 45 9,5 C 14,3 C 0,0 km/h (0 Bft)
12.08.2012 21:05 14,6 C 73 % 0,0 l/m 0,0 km/h (0 Bft) N 360 9,8 C 13,8 C 0,0 km/h (0 Bft)
12.08.2012 21:10 14,5 C 73 % 0,0 l/m 0,0 km/h (0 Bft) N-NO 22 9,7 C 13,7 C 0,0 km/h (0 Bft)
12.08.2012 21:15 13,8 C 73 % 0,0 l/m 0,0 km/h (0 Bft) NO 45 9,0 C 13,4 C 0,0 km/h (0 Bft)
12.08.2012 21:20 13,6 C 74 % 0,0 l/m 0,0 km/h (0 Bft) NO 45 9,1 C 13,0 C 0,0 km/h (0 Bft)
12.08.2012 21:25 13,5 C 75 % 0,0 l/m 0,0 km/h (0 Bft) NO 45 9,2 C 12,7 C 0,0 km/h (0 Bft)
12.08.2012 21:30 13,3 C 75 % 0,0 l/m 0,0 km/h (0 Bft) O 90 9,0 C 12,5 C 0,0 km/h (0 Bft)
12.08.2012 21:35 13,0 C 76 % 0,0 l/m 0,0 km/h (0 Bft) NO 45 8,9 C 12,2 C 0,0 km/h (0 Bft)
12.08.2012 21:40 12,9 C 77 % 0,0 l/m 0,0 km/h (0 Bft) W-SW 247 9,0 C 11,9 C 0,0 km/h (0 Bft)
12.08.2012 21:45 12,6 C 77 % 0,0 l/m 0,0 km/h (0 Bft) N-NW 337 8,7 C 11,7 C 0,0 km/h (0 Bft)
12.08.2012 21:50 12,5 C 78 % 0,0 l/m 0,0 km/h (0 Bft) N 360 8,8 C 11,6 C 0,0 km/h (0 Bft)
12.08.2012 21:55 12,5 C 78 % 0,0 l/m 0,0 km/h (0 Bft) NO 45 8,8 C 11,6 C 0,0 km/h (0 Bft)
12.08.2012 22:00 12,3 C 78 % 0,0 l/m 0,0 km/h (0 Bft) S 180 8,6 C 11,5 C 0,0 km/h (0 Bft)
12.08.2012 22:05 12,0 C 78 % 0,0 l/m 0,0 km/h (0 Bft) NO 45 8,3 C 11,3 C 0,0 km/h (0 Bft)
12.08.2012 22:10 12,0 C 79 % 0,0 l/m 0,0 km/h (0 Bft) N-NO 22 8,5 C 11,2 C 0,0 km/h (0 Bft)
12.08.2012 22:15 11,9 C 80 % 0,0 l/m 0,0 km/h (0 Bft) N-NO 22 8,6 C 11,1 C 0,0 km/h (0 Bft)
12.08.2012 22:20 12,5 C 80 % 0,0 l/m 0,0 km/h (0 Bft) N-NO 22 9,1 C 11,2 C 0,0 km/h (0 Bft)
12.08.2012 22:25 12,2 C 79 % 0,0 l/m 0,0 km/h (0 Bft) NW 315 8,7 C 11,2 C 0,0 km/h (0 Bft)
12.08.2012 22:30 11,8 C 79 % 0,0 l/m 0,0 km/h (0 Bft) W-SW 247 8,3 C 11,0 C 0,0 km/h (0 Bft)
12.08.2012 22:35 11,6 C 80 % 0,0 l/m 0,0 km/h (0 Bft) W-SW 247 8,3 C 10,7 C 0,0 km/h (0 Bft)
12.08.2012 22:40 11,5 C 81 % 0,0 l/m 0,0 km/h (0 Bft) NO 45 8,4 C 10,5 C 0,0 km/h (0 Bft)
12.08.2012 22:45 11,2 C 81 % 0,0 l/m 0,0 km/h (0 Bft) W-NW 292 8,1 C 10,4 C 0,0 km/h (0 Bft)
12.08.2012 22:50 11,3 C 82 % 0,0 l/m 0,0 km/h (0 Bft) N-NW 337 8,3 C 10,3 C 0,0 km/h (0 Bft)
12.08.2012 22:55 11,3 C 82 % 0,0 l/m 0,0 km/h (0 Bft) N-NO 22 8,3 C 10,2 C 0,0 km/h (0 Bft)
12.08.2012 23:00 11,1 C 82 % 0,0 l/m 0,0 km/h (0 Bft) N-NO 22 8,1 C 10,1 C 0,0 km/h (0 Bft)
12.08.2012 23:05 11,0 C 82 % 0,0 l/m 0,0 km/h (0 Bft) N 360 8,0 C 9,9 C 0,0 km/h (0 Bft)
12.08.2012 23:10 10,7 C 82 % 0,0 l/m 0,0 km/h (0 Bft) N 360 7,8 C 9,8 C 0,0 km/h (0 Bft)
12.08.2012 23:15 11,1 C 84 % 0,0 l/m 0,2 km/h (0 Bft) N 360 8,5 C 9,7 C 0,0 km/h (0 Bft)
12.08.2012 23:20 11,5 C 84 % 0,0 l/m 0,2 km/h (0 Bft) NO 45 8,9 C 9,8 C 0,0 km/h (0 Bft)
12.08.2012 23:25 11,3 C 84 % 0,0 l/m 0,2 km/h (0 Bft) N 360 8,7 C 9,9 C 0,0 km/h (0 Bft)
12.08.2012 23:30 11,4 C 85 % 0,0 l/m 0,2 km/h (0 Bft) N 360 9,0 C 10,0 C 0,0 km/h (0 Bft)
12.08.2012 23:35 11,6 C 85 % 0,0 l/m 0,0 km/h (0 Bft) N 360 9,2 C 10,3 C 0,0 km/h (0 Bft)
12.08.2012 23:40 11,5 C 85 % 0,0 l/m 0,0 km/h (0 Bft) O 90 9,1 C 10,5 C 0,0 km/h (0 Bft)
12.08.2012 23:45 11,4 C 85 % 0,0 l/m 0,0 km/h (0 Bft) N 360 9,0 C 10,5 C 0,0 km/h (0 Bft)
12.08.2012 23:50 11,4 C 85 % 0,0 l/m 0,0 km/h (0 Bft) N-NW 337 9,0 C 10,5 C 0,0 km/h (0 Bft)
12.08.2012 23:55 11,3 C 85 % 0,0 l/m 0,2 km/h (0 Bft) N 360 8,9 C 10,3 C 0,0 km/h (0 Bft)
_ Min-Zeit 06:35 14:40 - 23:50 - - 06:35 06:35 23:55
Minimum _ 5,3 C 49 % - 0,0 km/h (0 Bft) - - 4,1 C 4,7 C 0,0 km/h (0 Bft)
_ Max-Zeit 13:30 07:00 23:55 17:10 - - 15:50 17:00 11:55
Maximum _ 22,6 C 93 % 0,0 l/m 5,6 km/h
N (1 Bft)
- - 13,1 C 25,3 C 12,2 km/h
S (2 Bft)
Durchschnitt _ 14,6 C 71 % #0,0 l/m 1,8 km/h (1 Bft) W-NW - 9,1 C 15,7 C 2,2 km/h (1 Bft)